Regional Weather Roundup
Issued by NWS

Home | Current Version | Previous Version | Text Only | Print | Product List | Glossary Off
Versions: 1 2 3 4 5 6 7 8 9 10 11 12 13 14 15 16 17 18 19 20 21 22 23 24 25 26 27 28 29 30 31 32 33 34 35 36 37 38 39 40 41 42 43 44 45 46 47 48 49 50

186
ASUS43 KLOT 220508
RWRIL

ILLINOIS REGIONAL WEATHER ROUNDUP
NATIONAL WEATHER SERVICE CHICAGO/ROMEOVILLE IL
1200 AM CDT FRI MAY 22 2015

NOTE: "FAIR" INDICATES FEW OR NO CLOUDS BELOW 12,000 FEET WITH NO
SIGNIFICANT WEATHER AND/OR OBSTRUCTIONS TO VISIBILITY.

* THESE STATIONS ARE NOT UNDER NWS QUALITY CONTROL. THEY ALSO MAY NOT
  REPORT WEATHER SUCH AS PRECIPITATION OR FOG.

ILZ001-002-007-009-015-016-024-220600-
NORTHWEST ILLINOIS

CITY           SKY/WX    TMP DP  RH WIND       PRES   REMARKS
MOLINE         CLEAR     55  44  66 W6        30.05R
STERLING*      CLEAR     54  43  66 W8        30.04S
SAVANNA*       CLEAR     53  44  70 CALM      30.04R
$$

ILZ003-004-008-010-011-017-018-220600-
NORTH CENTRAL ILLINOIS

CITY           SKY/WX    TMP DP  RH WIND       PRES   REMARKS
ROCKFORD       CLEAR     57  41  55 SW9       30.04S
FREEPORT*      CLEAR     54  43  66 SW6       30.04S
ROCHELLE*      CLEAR     53  43  68 S8        30.04S
DE KALB*       CLEAR     58  40  51 SW12      30.04S
PERU*          CLEAR     58  44  60 SW12      30.06F
$$

ILZ005-006-012>014-019>023-220600-
NORTHEAST ILLINOIS

CITY           SKY/WX    TMP DP  RH WIND       PRES   REMARKS
CHICAGO-OHARE  CLEAR     59  38  45 SW6       30.02S
CHICAGO-MIDWAY FAIR      59  39  47 SW7       30.03S
AURORA         CLEAR     56  40  55 SW9       30.04S
LANSING*       CLEAR     47  38  69 SW7       30.05R
JOLIET*        CLEAR     59  43  55 SW5       30.05R
WAUKEGAN       LGT RAIN  56  48  74 N6        30.02R
DUPAGE AIRPORT CLEAR     54  40  59 SW9       30.03R
KANKAKEE*      CLEAR     54  42  63 SW8       30.07S
WHEELING       PTCLDY    58  38  47 SW5       30.03S
MORRIS*        CLEAR     57  42  58 SW7       30.02S
ROMEOVILLE*    CLEAR     58  39  49 W13       30.04S
NORTHERLY ISL    N/A     62  36  37 W8          N/A
$$

LMZ740>746-220600-
SOUTHERN LAKE MICHIGAN

STATION/POSITION SKY/WX   TEMP    WIND        PRES    VSBY  WAVE
                          AIR SEA DIR/SP/G                  HT/PER
                          (F)     (DEG/KT/KT) (MB)    (MI)  (FT/S)
SOUTHERN BUOY              44 38  270/  4/  8 1017.1R         1/ 3
HARRISON CRIB              65     220/ 14/ 18   N/A
BURNHAM HARBOR             62     210/  7/  9   N/A
CALUMET HARBOR             60     210/  5/  8   N/A
BURNS HARBOR               59     200/ 10/ 13 1017.6S
MICHIGAN CITY              59     180/ 12/ 13   N/A
MICHIGAN CITY 6N           55 51  220/ 10/ 12   N/A           1
ST. JOSEPH                 56 53  240/ 10/ 12   N/A           1/ 2
$$

ILZ025>027-034>036-040-047-049-050-058-095>099-220600-
WEST-CENTRAL ILLINOIS

CITY           SKY/WX    TMP DP  RH WIND       PRES   REMARKS
QUINCY         CLEAR     55  46  71 SW7       30.13F
GALESBURG*     CLEAR     57  47  69 SW13G18   30.08S
MACOMB*        CLEAR     58  47  67 SW13G18   30.12S
JACKSONVILLE*  CLEAR     58  46  65 SW8       30.14S
PITTSFIELD*    CLEAR     58  47  66 SW7       30.15S
$$

ILZ028>032-037-038-041>044-048-051>054-059>061-220600-
CENTRAL ILLINOIS

CITY           SKY/WX    TMP DP  RH WIND       PRES   REMARKS
PONTIAC        MOCLDY    58  45  60 SW13      30.09S
BLOOMINGTON    CLEAR     55  44  66 SW10      30.11F
DECATUR        CLEAR     53  44  71 SW8       30.13F
PEORIA         CLEAR     57  46  66 SW8       30.10S
LACON*         PTCLDY    57  45  63 SW6       30.07S
LINCOLN*       CLEAR     57  44  61 SW3       30.11S
SPRINGFIELD    CLEAR     57  44  62 SW6       30.14S
TAYLORVILLE    CLEAR     52  45  76 SW7       30.15S
$$

ILZ033-039-045-046-055>057-062-063-220600-
EAST-CENTRAL ILLINOIS

CITY           SKY/WX    TMP DP  RH WIND       PRES   REMARKS
CHAMPAIGN      CLEAR     53  44  71 SW12      30.12F
DANVILLE*      CLEAR     51  41  69 SW6       30.09S
RANTOUL*       CLEAR     55  41  61 SW8       30.11S
MATTOON        CLEAR     53  42  66 SW8       30.14S
PARIS*         CLEAR     51  42  72 SW9       30.14F
$$

ILZ079-100>102-220600-
SOUTHWEST ILLINOIS

CITY           SKY/WX    TMP DP  RH WIND       PRES   REMARKS
ALTON          CLEAR     51  50  97 CALM      30.18S
BELLEVILLE     FAIR      49  47  92 SW3       30.18R
CAHOKIA*       CLEAR     52  44  74 SW5       30.18R
SPARTA*        CLEAR     51  44  77 SW5       30.21R
$$

ILZ064>066-069>071-074>076-080>082-084>086-088>090-092>094-220600-
SOUTH-CENTRAL ILLINOIS

CITY           SKY/WX    TMP DP  RH WIND       PRES   REMARKS
CARBONDALE     CLEAR     45  43  93 S6        30.21R
CAIRO*         CLEAR     48  47  97 CALM      30.23R
EFFINGHAM*     CLEAR     47  42  82 CALM      30.18S
MARION         CLEAR     48  46  93 SW3       30.21S
MT. VERNON     CLEAR     45  37  76 CALM      30.20R
CENTRALIA*     CLEAR     46  42  85 CALM      30.18S
SALEM*         CLEAR     51  45  79 S3        30.18S
METROPOLIS*    CLEAR     47  47 100 CALM      30.22R
$$

ILZ067-068-072-073-078-083-087-091-220600-
SOUTHEAST ILLINOIS

CITY           SKY/WX    TMP DP  RH WIND       PRES   REMARKS
LAWRENCEVILLE  CLEAR     51  43  74 W7        30.17
FLORA*         CLEAR     47  43  84 SW5       30.18F
FAIRFIELD*     CLEAR     47  45  93 CALM      30.18S
HARRISBURG*    CLEAR     47  47 100 CALM      30.22S
ROBINSON*      CLEAR     50  44  78 SW8       30.17S
CARMI*         CLEAR     47  42  82 SW3       30.19S
$$

ABBREVIATIONS USED IN REMARKS
   TC - TEMPERATURE IN CELSIUS
  WCI - WIND CHILL INDEX
   HX - HEAT INDEX
  VSB - VISIBILITY
$$




USA.gov is the U.S. government's official web portal to all federal, state and local government web resources and services.